Location: Tierz
(42.1336°N, 0.3549°W)
Time: 18:20:14
(UTC+00:00)

ATLAS 2AS CENTAUR R/B - Pass Details

Date: 29 October 2020
Orbit: 939 x 1273 km, 63.7° (Epoch: 23 November)

Event Time Altitude Azimuth Distance (km) Brightness Sun altitude
Rises 18:13:55 0° 325° (NW) 4,169 6.2 -14.5°
Reaches altitude 10° 18:17:19 10° 337° (NNW) 3,159 5.4 -15.1°
Maximum altitude 18:23:36 27° 33° (NNE) 2,041 3.8 -16.3°
Enters shadow 18:26:17 22° 66° (ENE) 2,242 3.8 -16.8°
